Location: Martz Observatory
(42.0083°N, 79.0667°W)
Time: 09:36:10
(UTC-05:00)

Daily predictions for brighter satellites

Satellite Brightness Start Highest point End
(mag) Time Altitude Azimuth Time Altitude Azimuth Time Altitude Azimuth
CZ-2C R/B 3.8 17:10:48 10° NNE 17:15:17 85° WNW 17:19:49 10° SSW
USA 234 3.6 17:10:08 10° NE 17:16:30 52° SE 17:22:50 10° SSW
Cosmos 2082 Rocket 2.6 17:11:14 10° NNW 17:16:35 41° ENE 17:21:56 10° SE
CRYOSAT 2 4.4 17:13:34 10° N 17:18:28 69° E 17:23:19 10° S
YAOGAN 1 3.0 17:15:32 10° SE 17:19:35 40° ENE 17:23:39 10° N
PAYLOAD A 3.9 17:16:07 10° SSE 17:20:59 77° ENE 17:26:04 10° N
Cosmos 1500 3.5 17:20:37 10° N 17:24:20 45° E 17:28:02 10° SSE
Cosmos 1743 3.8 17:23:34 10° NNE 17:26:45 24° ENE 17:29:54 10° SE
CZ-2C R/B 2.6 17:22:05 10° SSE 17:27:02 59° ENE 17:32:07 10° N
NOSS 3-4 (A) 4.3 17:22:43 10° NNW 17:29:08 38° NE 17:35:54 10° ESE
NOSS 3-4 (C) 4.3 17:22:49 10° NNW 17:29:14 38° NE 17:35:59 10° ESE
Nadezhda 3 Rocket 4.4 17:23:55 10° SSE 17:29:43 43° E 17:35:37 10° NNE
Cosmos 1455 Rocket 3.5 17:31:04 10° NNW 17:35:28 67° W 17:39:52 10° S
NOSS 3-3 (A) 4.3 17:29:56 10° SW 17:36:06 68° NW 17:42:48 10° NNE
NOSS 3-3 (C) 4.3 17:30:02 10° SW 17:36:12 69° NW 17:42:54 10° NNE
SL-8 R/B 4.2 17:35:12 10° W 17:39:49 48° NNW 17:43:47 14° ENE
ATLAS 2AS CENTAUR R/B 4.4 17:36:31 10° NW 17:43:56 43° WSW 17:50:52 10° S
Cosmos 2056 Rocket 4.4 17:40:59 10° SSE 17:45:30 28° E 17:49:18 13° NE
Cosmos 1484 Rocket 3.4 17:42:16 10° SE 17:45:34 30° ENE 17:48:52 10° N
Cosmos 1809 Rocket 4.4 17:43:16 10° N 17:49:26 76° E 17:55:31 10° SSE
SJ-7 4.4 17:45:25 10° SSE 17:49:39 83° ENE 17:53:55 10° N
SMAP 3.1 17:47:01 10° SSE 17:51:40 84° WSW 17:56:22 10° NNW
Cosmos 2369 Rocket 4.0 17:53:04 10° ESE 17:54:58 12° E 17:54:58 12° E
CORIOLIS 4.2 17:50:19 10° SSE 17:55:44 89° WSW 18:01:09 10° NNW
Cosmos 1975 3.6 17:52:42 10° NNW 17:56:41 54° W 18:00:36 10° S
SL-24 DEB 4.2 17:52:09 10° N 17:56:53 75° E 18:01:33 10° S
Cosmos 1624 Rocket 4.5 17:53:27 10° S 17:58:15 39° ESE 18:02:04 15° NE
Meteor 1-13 Rocket 4.2 17:57:22 10° S 18:03:03 77° E 18:08:55 10° NNE
Meteor 2-4 Rocket 3.9 17:58:34 10° SSE 18:03:36 43° E 18:08:38 10° NNE
Cosmos 1726 Rocket 4.4 17:59:47 10° NNE 18:03:38 28° ENE 18:07:28 10° SE
Okean 1-7 Rocket 3.5 17:59:33 10° S 18:04:00 69° E 18:08:28 10° NNE
Cosmos 1371 Rocket 4.1 17:58:58 10° S 18:04:11 56° ESE 18:08:53 13° NNE
CZ-4 R/B 3.0 18:03:48 10° SSW 18:07:42 39° W 18:11:34 10° NNW
Tiangong 1 0.9 18:05:20 10° W 18:08:22 77° N 18:09:19 40° ENE
ISS -1.2 18:08:19 10° NW 18:10:23 15° N 18:10:48 15° N
SPOT 3 Rocket 4.4 18:07:02 10° S 18:12:05 54° W 18:17:10 10° NNW
Cosmos 1934 Rocket 4.1 18:06:07 10° N 18:12:09 50° ENE 18:18:14 10° SSE
MSX 3.9 18:06:44 10° SSE 18:12:29 84° WSW 18:18:16 10° NNW
BREEZE-M DEB (TANK) 4.4 18:08:14 10° WNW 18:14:22 32° N 18:15:37 25° NNE
Cosmos 1340 4.3 18:17:22 10° SSE 18:18:56 19° SE 18:18:56 19° SE
Cosmos 1535 Rocket 4.4 18:16:09 10° N 18:22:28 76° E 18:28:38 10° SSE
Cosmos 1606 Rocket 3.6 18:18:54 10° N 18:23:18 53° E 18:27:40 10° SSE
NOSS 7 (E) 4.3 18:23:32 10° SW 18:26:59 80° NW 18:27:49 47° NNE
NOSS 2-1 (D) 3.9 18:23:16 10° SW 18:27:03 54° NW 18:29:25 24° NNE
Cosmos 2297 4.4 18:21:39 10° SW 18:27:07 51° WNW 18:32:38 10° NNE
METEOR-M 4.4 18:22:38 10° SE 18:27:38 43° ENE 18:32:40 10° N
NOSS 2-1 (C) 3.9 18:23:55 10° SW 18:27:43 55° NW 18:30:04 24° NNE
COSMO-SKYMED 1 2.5 18:28:03 14° NNE 18:31:48 88° W 18:36:08 10° SSW
Cosmos 2239 Rocket 4.5 18:28:04 10° N 18:34:17 86° W 18:40:25 10° S
Cosmos 1452 Rocket 4.3 18:29:45 10° SSE 18:33:52 31° ESE 18:33:52 31° ESE
Cosmos 1190 Rocket 3.9 18:29:23 10° NNW 18:34:37 67° ENE 18:39:47 10° SSE
Cosmos 2278 Rocket 4.2 18:31:25 10° WSW 18:35:53 24° NW 18:40:23 10° N
GEOS 3 Rocket 3.9 18:36:10 39° ENE 18:36:58 42° NE 18:41:47 10° NNW
Cosmos 921 Rocket 4.3 18:33:34 10° SW 18:37:34 38° WNW 18:41:33 11° N
Cosmos 1666 2.6 18:34:42 10° N 18:38:36 86° W 18:42:28 10° S
Cosmos 1025 Rocket 3.1 18:34:33 10° SSW 18:38:56 77° W 18:42:26 16° N
BREEZE-M DEB (TANK) 4.3 18:44:22 10° NW 18:45:01 15° NNW 18:45:01 15° NNW
NOSS 2-1 (E) 4.5 18:42:48 10° WSW 18:46:31 40° NW 18:48:16 27° N
Cosmos 1821 Rocket 4.1 18:40:48 10° NNW 18:46:52 72° W 18:52:56 10° S
Cosmos 1833 Rocket 4.0 18:45:56 10° NW 18:51:11 41° WSW 18:56:23 10° S
Cosmos 1605 Rocket 3.8 18:51:24 10° N 18:57:42 79° E 19:03:53 10° S
USA 234 3.8 18:56:14 28° NNE 18:59:29 52° NNW 19:05:45 10° WSW
CZ-3B DEB 3.8 18:54:52 10° WNW 18:59:56 38° N 19:04:31 27° NE
Cosmos 2082 Rocket 4.1 18:55:40 10° NW 19:00:28 29° WSW 19:05:17 10° SSW
Meteor 1-28 Rocket 3.9 19:06:27 53° W 19:06:27 53° W 19:10:01 10° SSW
BREEZE M DEB (TANK) 3.4 19:08:27 10° WSW 19:13:17 41° WNW 19:13:17 41° WNW
NOSS 3-4 (A) 4.4 19:13:29 10° NW 19:20:21 55° WSW 19:27:36 10° SSE
NOSS 3-4 (C) 4.4 19:13:35 10° NW 19:20:27 55° WSW 19:27:42 10° SSE
Cosmos 407 Rocket 4.2 19:19:44 10° NNW 19:24:44 51° WSW 19:29:43 10° S
BREEZE M DEB (TANK) 4.0 19:25:46 10° WNW 19:30:19 81° SSW 19:34:22 41° SE
Cosmos 1727 Rocket 4.2 19:30:18 10° SSW 19:36:27 67° W 19:38:31 43° NNW
Cosmos 2369 Rocket 2.8 19:32:49 10° SSW 19:36:50 48° SSW 19:36:50 48° SSW
FALCON 9 R/B 3.4 19:31:31 10° W 19:48:12 50° SSW 19:49:07 48° S
ATLAS 3B CENTAUR R/B 4.5 19:43:51 10° W 19:57:25 30° SSW 20:00:27 24° S
